Overview Statistics Trail Chart Weather Telemetry Raw packets
 

This is the latest recevied weather packets stored in our database for station/object MEGLR. If no packets are shown the sender has not sent any weather packets the latest 10 day(s).

<< 5 6 7 8 9 10 11 >>
Time Temp. Humidity Pressure Rain* Wind** Luminosity Snow
1788588603 13.89° C 93% 0 hPa - - - -
1788588003 14.44° C 93% 0 hPa - - - -
1788587403 14.44° C 96% 0 hPa - - - -
1788586802 14.44° C 94% 0 hPa - - - -
1788586203 15° C 92% 0 hPa - - - -
1788585603 15° C 86% 0 hPa - - - -
1788585003 15° C 88% 0 hPa - - - -
1788584404 15.56° C 92% 0 hPa - - - -
1788583803 15.56° C 91% 0 hPa - - - -
1788583203 15.56° C 91% 0 hPa - - - -
1788582602 15° C 93% 0 hPa - - - -
1788582002 15.56° C 89% 0 hPa - - - -
1788581403 15.56° C 88% 0 hPa - - - -
1788580803 16.11° C 84% 0 hPa - - - -
1788580203 15.56° C 85% 0 hPa - - - -
1788579603 16.11° C 87% 0 hPa - - - -
1788579004 16.11° C 86% 0 hPa - - - -
1788578402 16.11° C 83% 0 hPa - - - -
1788577803 16.11° C 87% 0 hPa - - - -
1788577203 16.11° C 83% 0 hPa - - - -
1788576603 16.67° C 69% 0 hPa - - - -
1788576003 16.67° C 79% 0 hPa - - - -
1788575403 16.67° C 77% 0 hPa - - - -
1788574803 16.11° C 80% 0 hPa - - - -
1788574202 16.67° C 80% 0 hPa - - - -

* Rain since midnight (hover to see other rain measurements)
** Current wind speed in m/s (hover to see current wind gust speed)